Salina, KS

10:26 PM CDT on July 23, 2017 (GMT -0500)
Salina Municipal

Weather History for KSLN - July, 2012

Change the Weather History Date:

Saturday, July 21, 2012

  Actual Average Record
Temperature  
Mean Temperature 86 °F 82 °F  
Max Temperature 106 °F 93 °F 110 °F (2017)
Min Temperature 66 °F 70 °F 51 °F (1970)
Degree Days  
Heating Degree Days 0 0  
Month to date heating degree days 0 0  
Since 1 June heating degree days 10 7  
Since 1 July heating degree days 0 0  
Cooling Degree Days 21 17  
Month to date cooling degree days 464 335  
Year to date cooling degree days 1264 788  
Since 1 June cooling degree days 942 660  
Growing Degree Days 36 (Base 50)    
Moisture  
Dew Point 53 °F    
Average Humidity 43    
Maximum Humidity 73    
Minimum Humidity 13    
Precipitation  
Precipitation 0.00 in 0.13 in 1.66 in (1993)
Month to date precipitation 0.58 3.04  
Year to date precipitation 10.17 19.14  
Sea Level Pressure  
Sea Level Pressure 29.99 in    
Wind  
Wind Speed 8 mph (SE)    
Max Wind Speed 16 mph    
Max Gust Speed 25 mph    
Visibility 10 miles    
Events      
T = Trace of Precipitation, MM = Missing Value Source: NWS Daily Summary

Daily Weather History Graph

Daily Weather History Graph

Search for Another Location

Airport or City:

Trip Planner

Search our weather history database for the weather conditions in past years. The results will help you decide how hot, cold, wet, or windy it might be!

Date:

Astronomy

Jul. 21, 2012 Rise Set
Actual Time 6:22 AM CDT 8:50 PM CDT
Civil Twilight 5:52 AM CDT 9:21 PM CDT
Nautical Twilight 5:14 AM CDT 9:58 PM CDT
Astronomical Twilight 4:32 AM CDT 10:40 PM CDT
Moon 9:03 AM CDT (7/21) 10:05 PM CDT (7/21)
Length of Visible Light 15h 28m
Length of Day
14h 27m
Waxing Crescent, 7% of the Moon is Illuminated
Jul 21
Waxing Crescent
Jul 26
First Quarter
Aug 1
Full
Aug 9
Last Quarter
Aug 17
New

Hourly Weather History & Observations

Time (CDT) Temp. Heat Index Dew Point Humidity Pressure Visibility Wind Dir Wind Speed Gust Speed Precip Events Conditions
12:53 AM 81.0 °F 81.0 °F 57.0 °F 44% 30.00 in 10.0 mi ESE 8.1 mph - N/A   Clear
1:53 AM 79.0 °F - 55.9 °F 45% 29.99 in 10.0 mi ESE 8.1 mph - N/A   Clear
2:53 AM 75.9 °F - 54.0 °F 46% 29.99 in 10.0 mi SE 8.1 mph - N/A   Clear
3:53 AM 71.1 °F - 55.0 °F 57% 30.00 in 10.0 mi South 3.5 mph - N/A   Clear
4:53 AM 69.8 °F - 55.4 °F 60% 30.06 in 10.0 mi SSE 6.9 mph - N/A   Clear
5:53 AM 69.1 °F - 57.0 °F 65% 30.02 in 10.0 mi SSE 9.2 mph - N/A   Clear
6:53 AM 66.9 °F - 57.0 °F 70% 30.04 in 10.0 mi Calm Calm - N/A   Clear
7:53 AM 73.0 °F - 57.9 °F 59% 30.04 in 10.0 mi SE 6.9 mph - N/A   Clear
8:53 AM 79.0 °F - 62.1 °F 56% 30.05 in 10.0 mi South 9.2 mph - N/A   Clear
9:53 AM 84.9 °F 85.9 °F 63.0 °F 48% 30.03 in 10.0 mi SSE 10.4 mph - N/A   Clear
10:53 AM 90.0 °F 89.7 °F 60.1 °F 37% 30.03 in 10.0 mi SSE 5.8 mph - N/A   Clear
11:53 AM 93.9 °F 91.4 °F 53.1 °F 25% 30.02 in 10.0 mi SE 8.1 mph - N/A   Clear
12:53 PM 98.1 °F - 50.0 °F 20% 30.01 in 10.0 mi SE 9.2 mph - N/A   Clear
1:53 PM 100.9 °F 98.7 °F 53.1 °F 20% 29.99 in 10.0 mi Variable 3.5 mph - N/A   Clear
2:53 PM 102.0 °F - 51.1 °F 18% 29.97 in 10.0 mi ESE 11.5 mph 19.6 mph N/A   Clear
3:53 PM 105.1 °F - 48.9 °F 15% 29.96 in 10.0 mi SSE 9.2 mph 25.3 mph N/A   Clear
4:53 PM 105.1 °F - 48.9 °F 15% 29.94 in 10.0 mi SSE 12.7 mph 18.4 mph N/A   Clear
5:53 PM 104.0 °F - 44.1 °F 13% 29.94 in 10.0 mi SE 12.7 mph - N/A   Clear
6:53 PM 102.9 °F - 46.0 °F 15% 29.92 in 10.0 mi SE 12.7 mph - N/A   Clear
7:53 PM 100.0 °F - 46.9 °F 16% 29.92 in 10.0 mi SE 11.5 mph - N/A   Clear
8:53 PM 93.0 °F - 48.9 °F 22% 29.92 in 10.0 mi SE 6.9 mph - N/A   Clear
9:53 PM 87.1 °F - 52.0 °F 30% 29.94 in 10.0 mi SE 4.6 mph - N/A   Clear
10:53 PM 82.9 °F - 52.0 °F 34% 29.94 in 10.0 mi SSE 6.9 mph - N/A   Clear
11:53 PM 81.0 °F 80.4 °F 53.1 °F 38% 29.95 in 10.0 mi SE 5.8 mph - N/A   Clear